Location: Newark
(5.5500°N, 0.2500°W)
Time: 07:14:27
(UTC+00:00)

Hubble Space Telescope - Pass Details

Date: 28 September 2019
Orbit: 536 x 540 km, 28.5° (Epoch: 22 October)

Event Time Altitude Azimuth Distance (km) Brightness Sun altitude
Exits shadow 04:54:38 25° 265° (W) 1,099 1.7 -14.4°
Maximum altitude 04:56:31 41° 211° (SSW) 774 1.3 -13.9°
Drops below altitude 10° 05:00:25 10° 139° (SE) 1,775 4.0 -13.0°
Sets 05:02:46 0° 132° (SE) 2,666 5.1 -12.4°
